When you browse on this site, cookies collect data to enhance your experience and personalize the content and advertising you see.
Visit our Privacy Policy to learn more. By continuing to use the site, you agree to this use of cookies and data.
  • In Sweden
  • List of Countries
  • For 7 days
  • Water Temperature
  • Satellite Maps
  • Weather Map
  • Weather Widgets
  • user-avatar
    Login

    Hourly Weather Filipki

    Today, 23 February, Saturday

    Time Temperature Precipitation Wind Pressure Humidity
    00:00 -5°C° 0 mm 3 mps 774 mmHg 49%
    01:00 -4°C° 0 mm 2 mps 775 mmHg 42%
    02:00 -4°C° 0 mm 2 mps 775 mmHg 42%
    03:00 -2°C° 0 mm 1 mps 775 mmHg 43%
    04:00 -2°C° 0 mm 1 mps 774 mmHg 44%
    05:00 -3°C° 0 mm 1 mps 775 mmHg 45%
    06:00 -4°C° 0 mm 0 mps 775 mmHg 45%
    07:00 -4°C° 0 mm 0 mps 775 mmHg 45%
    08:00 -3°C° 0 mm 0 mps 775 mmHg 42%
    09:00 -3°C° 0 mm 0 mps 775 mmHg 38%
    10:00 -1°C° 0 mm 1 mps 775 mmHg 35%
    11:00 0°C° 0 mm 1 mps 775 mmHg 33%
    12:00 +1°C° 0 mm 1 mps 775 mmHg 30%
    13:00 -1°C° 0 mm 2 mps 775 mmHg 28%
    14:00 -1°C° 0 mm 2 mps 774 mmHg 29%
    15:00 -1°C° 0 mm 2 mps 774 mmHg 31%
    16:00 -1°C° 0 mm 2 mps 773 mmHg 32%
    17:00 -2°C° 0 mm 2 mps 773 mmHg 35%
    18:00 -2°C° 0 mm 2 mps 773 mmHg 37%
    19:00 -2°C° 0 mm 2 mps 772 mmHg 40%
    20:00 -3°C° 0 mm 2 mps 772 mmHg 41%
    21:00 -3°C° 0 mm 2 mps 772 mmHg 42%
    22:00 -3°C° 0 mm 2 mps 772 mmHg 43%
    23:00 -4°C° 0 mm 3 mps 771 mmHg 42%

    Tomorrow, 24 February, Sunday

    Time Temperature Precipitation Wind Pressure Humidity
    00:00 -4°C° 0 mm 3 mps 771 mmHg 41%
    01:00 -4°C° 0 mm 3 mps 771 mmHg 40%
    02:00 -4°C° 0 mm 3 mps 770 mmHg 39%
    03:00 -2°C° 0 mm 3 mps 770 mmHg 38%
    04:00 -3°C° 0 mm 4 mps 770 mmHg 37%
    05:00 -3°C° 0 mm 4 mps 770 mmHg 38%
    06:00 -3°C° 0 mm 4 mps 769 mmHg 39%
    07:00 -3°C° 0 mm 4 mps 769 mmHg 39%
    08:00 -2°C° 0 mm 4 mps 769 mmHg 39%
    09:00 -1°C° 0 mm 4 mps 769 mmHg 40%
    10:00 -1°C° 0 mm 4 mps 769 mmHg 40%
    11:00 +1°C° 0 mm 4 mps 769 mmHg 38%
    12:00 +3°C° 0 mm 4 mps 769 mmHg 36%
    13:00 +4°C° 0 mm 4 mps 768 mmHg 35%
    14:00 +4°C° 0 mm 3 mps 768 mmHg 40%
    15:00 +3°C° 0 mm 3 mps 768 mmHg 45%
    16:00 +4°C° 0 mm 2 mps 768 mmHg 50%
    17:00 +3°C° 0 mm 2 mps 768 mmHg 54%
    18:00 +1°C° 0 mm 3 mps 768 mmHg 59%
    19:00 0°C° 0 mm 3 mps 768 mmHg 63%
    20:00 0°C° 0 mm 3 mps 767 mmHg 65%
    21:00 0°C° 0 mm 3 mps 767 mmHg 67%
    22:00 -1°C° 0 mm 3 mps 767 mmHg 69%
    23:00 -1°C° 0 mm 3 mps 767 mmHg 70%

    Day after tomorrow, 25 February, Monday

    Time Temperature Precipitation Wind Pressure Humidity
    00:00 -1°C° 0 mm 3 mps 767 mmHg 71%
    01:00 -1°C° 0 mm 3 mps 767 mmHg 71%
    02:00 -1°C° 0 mm 3 mps 767 mmHg 73%
    03:00 -1°C° 0 mm 3 mps 767 mmHg 75%
    04:00 -1°C° 0 mm 3 mps 767 mmHg 76%
    05:00 -1°C° 0 mm 3 mps 767 mmHg 80%
    06:00 -1°C° 0 mm 3 mps 767 mmHg 83%
    07:00 -1°C° 0 mm 3 mps 767 mmHg 87%
    08:00 -1°C° 0 mm 4 mps 767 mmHg 86%
    09:00 0°C° 0 mm 4 mps 767 mmHg 85%
    10:00 +3°C° 0 mm 4 mps 767 mmHg 84%
    11:00 +3°C° 0 mm 4 mps 767 mmHg 84%
    12:00 +3°C° 0 mm 4 mps 767 mmHg 84%
    13:00 +4°C° 0 mm 4 mps 766 mmHg 84%
    14:00 +4°C° 0 mm 4 mps 766 mmHg 84%
    15:00 +4°C° 0 mm 4 mps 766 mmHg 83%
    16:00 +4°C° 0 mm 4 mps 766 mmHg 83%
    17:00 +4°C° 0 mm 3 mps 766 mmHg 85%
    18:00 +3°C° 0 mm 3 mps 766 mmHg 88%
    19:00 +2°C° 0 mm 3 mps 765 mmHg 90%
    20:00 +1°C° 0 mm 3 mps 765 mmHg 91%
    21:00 +1°C° 0 mm 3 mps 765 mmHg 91%
    22:00 +1°C° 0 mm 3 mps 765 mmHg 91%
    23:00 0°C° 0 mm 3 mps 765 mmHg 92%

    26 February, Tuesday

    Time Temperature Precipitation Wind Pressure Humidity
    00:00 0°C° 0 mm 3 mps 765 mmHg 93%
    01:00 0°C° 0 mm 3 mps 764 mmHg 95%
    02:00 0°C° 0 mm 3 mps 764 mmHg 95%
    03:00 0°C° 0 mm 3 mps 763 mmHg 96%
    04:00 -1°C° 0 mm 4 mps 763 mmHg 96%
    05:00 0°C° 0 mm 4 mps 762 mmHg 96%
    06:00 +1°C° 0 mm 4 mps 762 mmHg 96%
    07:00 +3°C° 0 mm 4 mps 762 mmHg 95%
    08:00 +2°C° 0 mm 5 mps 762 mmHg 93%
    09:00 +3°C° 0 mm 5 mps 762 mmHg 91%
    10:00 +3°C° 0 mm 5 mps 762 mmHg 89%
    11:00 +5°C° 0 mm 5 mps 762 mmHg 83%
    12:00 +6°C° 0 mm 5 mps 762 mmHg 77%
    13:00 +7°C° 0 mm 5 mps 762 mmHg 71%
    14:00 +7°C° 0 mm 5 mps 762 mmHg 69%
    15:00 +7°C° 0 mm 5 mps 762 mmHg 68%
    16:00 +7°C° 0 mm 4 mps 762 mmHg 67%
    17:00 +6°C° 0 mm 4 mps 763 mmHg 72%
    18:00 +5°C° 0 mm 4 mps 763 mmHg 77%
    19:00 +3°C° 0 mm 3 mps 763 mmHg 82%
    20:00 +3°C° 0 mm 3 mps 764 mmHg 84%
    21:00 +2°C° 0 mm 3 mps 764 mmHg 85%
    22:00 +1°C° 0 mm 3 mps 764 mmHg 87%
    23:00 +2°C° 0 mm 2 mps 764 mmHg 88%

    27 February, Wednesday

    Time Temperature Precipitation Wind Pressure Humidity
    00:00 +2°C° 0 mm 2 mps 764 mmHg 88%
    01:00 +2°C° 0 mm 1 mps 764 mmHg 89%
    02:00 +1°C° 0 mm 2 mps 764 mmHg 88%
    03:00 +1°C° 0 mm 2 mps 764 mmHg 88%
    04:00 +1°C° 0 mm 2 mps 763 mmHg 88%
    05:00 +1°C° 0 mm 2 mps 763 mmHg 87%
    06:00 +1°C° 0 mm 2 mps 763 mmHg 87%
    07:00 0°C° 0 mm 3 mps 762 mmHg 87%
    08:00 +2°C° 0 mm 3 mps 762 mmHg 84%
    09:00 +3°C° 0 mm 4 mps 762 mmHg 80%
    10:00 +5°C° 0 mm 4 mps 761 mmHg 77%
    11:00 +6°C° 0 mm 5 mps 761 mmHg 72%
    12:00 +7°C° 0 mm 5 mps 760 mmHg 68%
    13:00 +8°C° 0 mm 5 mps 759 mmHg 63%
    14:00 +8°C° 0 mm 5 mps 759 mmHg 64%
    15:00 +8°C° 0 mm 5 mps 758 mmHg 65%
    16:00 +8°C° 0 mm 4 mps 758 mmHg 65%
    17:00 +7°C° 0 mm 4 mps 758 mmHg 72%
    18:00 +7°C° 0 mm 3 mps 758 mmHg 78%
    19:00 +5°C° 0 mm 3 mps 757 mmHg 85%
    20:00 +4°C° 0 mm 3 mps 757 mmHg 87%
    21:00 +4°C° 0 mm 3 mps 756 mmHg 89%
    22:00 +4°C° 0 mm 3 mps 756 mmHg 91%
    23:00 +4°C° 0 mm 3 mps 755 mmHg 90%

    28 February, Thursday

    Time Temperature Precipitation Wind Pressure Humidity
    00:00 +4°C° 0 mm 4 mps 754 mmHg 89%
    01:00 +4°C° 0 mm 4 mps 754 mmHg 88%
    02:00 +4°C° 0 mm 4 mps 753 mmHg 87%
    03:00 +2°C° 0 mm 5 mps 752 mmHg 86%
    04:00 +2°C° 0 mm 5 mps 751 mmHg 85%
    05:00 +2°C° 0 mm 5 mps 750 mmHg 83%
    06:00 +2°C° 0 mm 6 mps 750 mmHg 81%
    07:00 +2°C° 0 mm 6 mps 749 mmHg 79%
    08:00 +3°C° 0 mm 7 mps 749 mmHg 78%
    09:00 +4°C° 0 mm 8 mps 749 mmHg 78%
    10:00 +5°C° 0 mm 9 mps 749 mmHg 77%
    11:00 +5°C° 0 mm 9 mps 749 mmHg 76%
    12:00 +5°C° 0 mm 9 mps 749 mmHg 74%
    13:00 +5°C° 0 mm 10 mps 749 mmHg 72%
    14:00 +6°C° 0 mm 9 mps 749 mmHg 68%
    15:00 +6°C° 0 mm 9 mps 749 mmHg 63%
    16:00 +7°C° 0 mm 9 mps 749 mmHg 59%
    17:00 +6°C° 0 mm 8 mps 749 mmHg 61%
    18:00 +5°C° 0 mm 8 mps 749 mmHg 64%
    19:00 +4°C° 0 mm 8 mps 749 mmHg 66%
    20:00 +3°C° 0 mm 7 mps 750 mmHg 70%
    21:00 +3°C° 0 mm 7 mps 750 mmHg 73%
    22:00 +2°C° 0 mm 6 mps 750 mmHg 77%
    23:00 +2°C° 0 mm 6 mps 750 mmHg 78%
    Show more